Regional Weather Roundup
Issued by NWS

Home | Current Version | Previous Version | Graphics & Text | Print | Product List | Glossary On
Versions: 1 2 3 4 5 6 7 8 9 10 11 12 13 14 15 16 17 18 19 20 21 22 23 24 25 26 27 28 29 30 31 32 33 34 35 36 37 38 39 40 41 42 43 44 45 46 47 48 49 50
000
ASUS45 KABQ 281310
RWRNM
NEW MEXICO REGIONAL WEATHER ROUNDUP
NATIONAL WEATHER SERVICE ALBUQUERQUE NM
700 AM MDT SAT MAY 28 2016

NOTE: "FAIR" MEANS FEW OR NO CLOUDS BELOW 12,000 FEET AGL WITH NO
       SIGNIFICANT WEATHER OR OBSTRUCTIONS TO VISION.

      THIS PRODUCT IS RELEASED AS TWO VERSIONS.  ONE VERSION NEAR
      THE TOP OF THE HOUR CONTAINING PRELIMINARY DATA FROM ALBUQUERQUE
      AND OTHER STATIONS.  A FINAL VERSION WITH ADDITIONAL DATA IS
      ISSUED ABOUT 10 MINUTES AFTER THE HOUR.

NMZ501-503-504-510>518-281400-
NORTHWEST PLATEAU/NORTHCENTRAL MOUNTAINS

CITY           SKY/WX    TMP DP  RH WIND       PRES   REMARKS
FARMINGTON     FAIR      46  33  60 E6        30.08R
LOS ALAMOS     FAIR      47  31  54 N3        30.15S
SANTA FE       FAIR      45  31  58 NE7       30.11R
TAOS           FAIR      36  28  75 N3        30.17R
ANGEL FIRE     FAIR      27  26  94 CALM      30.22R

$$
NMZ402-403-502-505>509-281400-
WESTCENTRAL MOUNTAINS/SOUTHWEST MOUNTAINS

CITY           SKY/WX    TMP DP  RH WIND       PRES   REMARKS
GALLUP         FAIR      41  25  53 NE6       30.12R
GRANTS         FAIR      37  21  53 NW5       30.15R WCI  33
SILVER CITY      N/A     54  18  24 N9        30.06S

$$
NMZ407-409-411-412-281400-
SOUTHERN DESERTS

CITY           SKY/WX    TMP DP  RH WIND       PRES   REMARKS
LORDSBURG      FAIR      52  18  25 SE5       30.00R
DEMING         FAIR      46  15  28 CALM      30.01R
LAS CRUCES     FAIR      55  21  26 NW5       30.02R
HOLLOMAN AFB   FAIR      56  19  23 SE6       29.99R
ALAMOGORDO     FAIR      50  25  37 SE6       30.01R
T OR C         FAIR      57  25  29 NW7       30.02R

$$
NMZ519>523-281400-
CENTRAL VALLEYS/CENTRAL HIGHLANDS

CITY           SKY/WX    TMP DP  RH WIND       PRES   REMARKS
ALBUQUERQUE    FAIR      52  30  43 N8        30.07R
DOUBLE EAGLE   SUNNY     50  30  46 VRB6      30.09R
MORIARTY ARPT  FAIR      38  26  60 N5        30.13R WCI  35
CLINES CORNERS FAIR      51  31  46 SW5       30.12R
BELEN          FAIR      51  23  33 N5        30.07R
SOCORRO        FAIR      56  24  29 NW6       30.05R

$$
NMZ524>526-539-540-281400-
SOUTHCENTRAL MOUNTAINS

CITY           SKY/WX    TMP DP  RH WIND       PRES   REMARKS
RUIDOSO          N/A     54  23  30 W5        30.15R

$$
NMZ527>531-281400-
NORTHEAST HIGHLANDS/NORTHEAST PLAINS

CITY           SKY/WX    TMP DP  RH WIND       PRES   REMARKS
LAS VEGAS      FAIR      47  35  63 S6        30.13R
RATON          FAIR      40  35  83 NE5       30.09R
CLAYTON        FAIR      54  41  61 W5        30.04R

$$
NMZ532>537-281400-
EASTCENTRAL PLAINS

CITY           SKY/WX    TMP DP  RH WIND       PRES   REMARKS
TUCUMCARI      FAIR      54  43  66 W3        30.03R
CANNON AFB     FAIR      55  44  66 NE8       30.03R
CLOVIS AIRPORT FAIR      54  43  66 N8        30.03R

$$
NMZ028-029-538-281400-
SOUTHEAST PLAINS

CITY           SKY/WX    TMP DP  RH WIND       PRES   REMARKS
ROSWELL        FAIR      59  37  44 N10       30.00R
ARTESIA        FAIR      57  37  47 N9        30.00R
CARLSBAD       FAIR      63  30  28 NW12      29.97R
HOBBS          SUNNY     55  37  50 N8        30.01R


$$




USA.gov is the U.S. government's official web portal to all federal, state and local government web resources and services.